World > North America > United States > Florida   Village of North Palm Beach, FL

North Palm Beach, Florida Regional Weather

Lat: 26.82N, Lon: 80.08W
Wx Zone: FLZ168
Warning NWS WEATHER ALERT - (More Info. Click Here) Warning
Feedback

North Palm Beach, FL Regional Weather

Expires:202004051000;;600872
ASUS42 KTBW 050918
RWRFL 
FLORIDA REGIONAL WEATHER ROUNDUP
NATIONAL WEATHER SERVICE TAMPA BAY RUSKIN FL
500 AM EDT SUN APR 05 2020

NOTE: "FAIR" INDICATES FEW OR NO CLOUDS BELOW 12,000 FEET WITH NO
SIGNIFICANT WEATHER AND/OR OBSTRUCTIONS TO VISIBILITY.


FLZ067-068-071>074-168-172>174-051000-
SOUTHEAST FLORIDA 
  
CITY           SKY/WX    TMP DP  RH WIND       PRES   REMARKS
W PALM BEACH   CLOUDY    76  63  64 CALM      29.92R                  
FT LAUDER-EXEC FAIR      73  63  70 CALM      29.91S                  
FT LAUDERDALE  FAIR      74  64  71 CALM      29.90S                  
POMPANO BEACH  FAIR      70  64  81 CALM      29.91S                  
PEMBROKE PINES FAIR      74  63  68 CALM      29.92S                  
OPA LOCKA      FAIR      71  62  73 CALM      29.91S                  
MIAMI          FAIR      73  65  75 CALM      29.91S                  
WEST KENDALL   FAIR      66  63  90 CALM      29.91S                  
HOMESTEAD      FAIR      66  64  93 CALM      29.89S                  

STATION/POSITION SKY/WX   TEMP    WIND        PRES    WAVE   SWELL
                          AIR SEA DIR/SP/G            HT/PER HT/PER
                          (F)     (DEG/KT/KT) (MB)    (FT/S) (FT/S)
VIRGINIA KEY               76 81  130/  6/  8 1012.9R
LAKE WORTH                 75 79  240/  4/  5 1011.9R
FOWEY ROCKS                75 77  160/ 10/ 10 1013.1R
SETTLEMENT POINT           75     170/  7/ 10 1013.0F

$$

  

SKY/WX - Weather  TMP - Temperature  DP - Dew Point  RH - Relative Humidity
WIND - Wind Direction/Speed PRES - Barometric Pressure VSB - Visibility
WCI - Wind Chill Index E13G22 Wind - East Wind 13 mph/Gusts of 22 mph
North Palm Beach Weather Map
UTC Time: 4/5/2020, 09:29
Your Time: